TimeCST,TemperatureF,Dew PointF,Humidity,Sea Level PressureIn,VisibilityMPH,Wind Direction,Wind SpeedMPH,Gust SpeedMPH,PrecipitationIn,Events,Conditions,WindDirDegrees,DateUTC
12:15 AM,17.2,9.3,71,30.76,10.0,North,11.5,-,N/A,,Clear,350,2013-11-12 06:15:00
12:35 AM,16.7,9.3,73,30.76,10.0,North,10.4,-,N/A,,Clear,350,2013-11-12 06:35:00
12:55 AM,16.2,8.6,72,30.76,10.0,North,11.5,-,N/A,,Clear,360,2013-11-12 06:55:00
1:15 AM,15.6,9.1,76,30.77,10.0,North,8.1,-,N/A,,Clear,350,2013-11-12 07:15:00
1:35 AM,14.7,8.8,77,30.78,10.0,North,6.9,-,N/A,,Clear,350,2013-11-12 07:35:00
1:55 AM,14.7,8.6,77,30.78,10.0,North,9.2,-,N/A,,Clear,350,2013-11-12 07:55:00
2:15 AM,14.5,8.4,77,30.78,10.0,North,8.1,-,N/A,,Clear,350,2013-11-12 08:15:00
2:35 AM,13.8,8.1,78,30.79,10.0,NNW,8.1,-,N/A,,Clear,340,2013-11-12 08:35:00
2:55 AM,13.6,8.1,78,30.79,10.0,NNW,9.2,-,N/A,,Clear,340,2013-11-12 08:55:00
3:15 AM,13.5,7.9,78,30.79,10.0,North,8.1,-,N/A,,Clear,350,2013-11-12 09:15:00
3:35 AM,13.1,7.7,79,30.78,10.0,NNW,8.1,-,N/A,,Clear,340,2013-11-12 09:35:00
3:55 AM,12.2,7.3,81,30.78,10.0,NNW,5.8,-,N/A,,Clear,340,2013-11-12 09:55:00
4:15 AM,12.2,7.0,80,30.78,10.0,NNW,5.8,-,N/A,,Clear,340,2013-11-12 10:15:00
4:35 AM,11.3,6.8,82,30.78,10.0,NNW,4.6,-,N/A,,Clear,340,2013-11-12 10:35:00
4:55 AM,11.3,6.8,82,30.80,10.0,NW,5.8,-,N/A,,Clear,320,2013-11-12 10:55:00
5:15 AM,10.4,6.4,84,30.80,10.0,WNW,3.5,-,N/A,,Clear,300,2013-11-12 11:15:00
5:35 AM,9.5,5.9,85,30.81,10.0,NW,5.8,-,N/A,,Clear,310,2013-11-12 11:35:00
5:55 AM,9.5,5.9,85,30.81,10.0,NW,4.6,-,N/A,,Clear,320,2013-11-12 11:55:00
6:15 AM,9.1,5.7,86,30.82,10.0,NW,4.6,-,N/A,,Clear,310,2013-11-12 12:15:00
6:35 AM,9.5,5.9,85,30.84,10.0,NW,5.8,-,N/A,,Clear,310,2013-11-12 12:35:00
6:55 AM,9.0,5.5,86,30.84,10.0,WNW,3.5,-,N/A,,Clear,290,2013-11-12 12:55:00
7:15 AM,8.6,5.5,87,30.83,10.0,WNW,3.5,-,N/A,,Clear,300,2013-11-12 13:15:00
7:35 AM,9.5,5.9,85,30.84,10.0,WNW,4.6,-,N/A,,Clear,300,2013-11-12 13:35:00
7:55 AM,10.2,6.4,85,30.84,10.0,WNW,3.5,-,N/A,,Clear,300,2013-11-12 13:55:00
8:15 AM,11.1,7.0,83,30.84,10.0,Calm,Calm,-,N/A,,Clear,0,2013-11-12 14:15:00
8:35 AM,12.4,7.7,82,30.85,10.0,Calm,Calm,-,N/A,,Clear,0,2013-11-12 14:35:00
8:55 AM,14.0,8.8,80,30.85,10.0,Calm,Calm,-,N/A,,Clear,0,2013-11-12 14:55:00
9:15 AM,15.4,9.3,77,30.86,10.0,Calm,Calm,-,N/A,,Clear,0,2013-11-12 15:15:00
9:35 AM,16.5,8.6,71,30.85,10.0,Calm,Calm,-,N/A,,Clear,0,2013-11-12 15:35:00
9:55 AM,17.4,7.9,66,30.84,10.0,Calm,Calm,-,N/A,,Clear,0,2013-11-12 15:55:00
10:15 AM,18.5,8.6,65,30.84,10.0,Calm,Calm,-,N/A,,Clear,0,2013-11-12 16:15:00
10:35 AM,19.8,8.8,62,30.84,10.0,WSW,3.5,-,N/A,,Clear,250,2013-11-12 16:35:00
10:55 AM,21.2,9.5,61,30.83,10.0,SW,4.6,-,N/A,,Clear,220,2013-11-12 16:55:00
11:15 AM,22.6,10.0,59,30.83,10.0,WSW,4.6,-,N/A,,Clear,240,2013-11-12 17:15:00
11:35 AM,23.5,10.0,56,30.82,10.0,WSW,4.6,-,N/A,,Clear,250,2013-11-12 17:35:00
11:55 AM,24.3,9.0,52,30.80,10.0,SW,4.6,-,N/A,,Clear,230,2013-11-12 17:55:00
12:15 PM,25.9,9.3,50,30.78,10.0,SSW,6.9,-,N/A,,Clear,210,2013-11-12 18:15:00
12:35 PM,26.6,8.8,47,30.77,10.0,SW,4.6,-,N/A,,Clear,220,2013-11-12 18:35:00
12:55 PM,28.2,9.1,45,30.76,10.0,SW,8.1,-,N/A,,Clear,230,2013-11-12 18:55:00
1:15 PM,29.3,7.5,40,30.74,10.0,SW,6.9,-,N/A,,Clear,230,2013-11-12 19:15:00
1:35 PM,29.3,8.6,42,30.74,10.0,SW,8.1,-,N/A,,Clear,220,2013-11-12 19:35:00
1:55 PM,30.2,7.2,38,30.72,10.0,SW,8.1,-,N/A,,Clear,230,2013-11-12 19:55:00
2:15 PM,31.3,7.2,36,30.72,10.0,WSW,8.1,-,N/A,,Clear,240,2013-11-12 20:15:00
2:35 PM,32.2,7.2,35,30.71,10.0,SSW,6.9,-,N/A,,Clear,200,2013-11-12 20:35:00
2:55 PM,32.0,6.8,35,30.70,10.0,SSW,5.8,-,N/A,,Clear,210,2013-11-12 20:55:00
3:15 PM,32.4,6.4,34,30.69,10.0,SSW,8.1,-,N/A,,Clear,200,2013-11-12 21:15:00
3:35 PM,32.5,6.4,33,30.68,10.0,SSW,9.2,-,N/A,,Clear,210,2013-11-12 21:35:00
3:55 PM,32.4,5.9,33,30.67,10.0,South,8.1,-,N/A,,Clear,190,2013-11-12 21:55:00
4:15 PM,32.0,5.9,33,30.66,10.0,South,10.4,-,N/A,,Clear,190,2013-11-12 22:15:00
4:35 PM,31.6,6.4,35,30.65,10.0,South,8.1,-,N/A,,Clear,190,2013-11-12 22:35:00
4:55 PM,29.7,5.9,37,30.64,10.0,South,8.1,-,N/A,,Clear,180,2013-11-12 22:55:00
5:15 PM,27.3,6.3,41,30.64,10.0,South,6.9,-,N/A,,Clear,180,2013-11-12 23:15:00
5:35 PM,26.1,6.4,43,30.64,10.0,South,5.8,-,N/A,,Clear,180,2013-11-12 23:35:00
5:55 PM,25.5,6.8,45,30.63,10.0,South,5.8,-,N/A,,Clear,170,2013-11-12 23:55:00
6:15 PM,25.0,7.5,48,30.62,10.0,South,5.8,-,N/A,,Clear,170,2013-11-13 00:15:00
6:35 PM,24.8,7.5,48,30.62,10.0,South,6.9,-,N/A,,Clear,180,2013-11-13 00:35:00
6:55 PM,25.9,5.9,43,30.62,10.0,South,4.6,-,N/A,,Clear,170,2013-11-13 00:55:00
7:15 PM,26.4,5.9,42,30.62,10.0,SSE,5.8,-,N/A,,Clear,160,2013-11-13 01:15:00
7:35 PM,23.9,7.0,49,30.63,10.0,South,5.8,-,N/A,,Clear,180,2013-11-13 01:35:00
7:55 PM,22.8,7.5,52,30.62,10.0,South,5.8,-,N/A,,Clear,170,2013-11-13 01:55:00
8:15 PM,23.4,7.7,51,30.62,10.0,South,6.9,-,N/A,,Clear,190,2013-11-13 02:15:00
8:35 PM,23.5,8.6,53,30.62,10.0,South,5.8,-,N/A,,Clear,180,2013-11-13 02:35:00
8:55 PM,23.4,8.6,53,30.62,10.0,South,5.8,-,N/A,,Clear,190,2013-11-13 02:55:00
9:15 PM,23.4,8.6,53,30.61,10.0,South,9.2,-,N/A,,Clear,180,2013-11-13 03:15:00
9:35 PM,23.4,10.2,57,30.60,10.0,South,9.2,-,N/A,,Clear,180,2013-11-13 03:35:00
9:55 PM,22.8,10.2,59,30.58,10.0,South,9.2,-,N/A,,Clear,180,2013-11-13 03:55:00
10:15 PM,24.6,10.4,55,30.56,10.0,South,12.7,-,N/A,,Clear,180,2013-11-13 04:15:00
10:35 PM,25.3,9.9,52,30.57,10.0,SSW,10.4,-,N/A,,Clear,210,2013-11-13 04:35:00
10:55 PM,23.9,10.4,56,30.56,10.0,South,10.4,-,N/A,,Clear,190,2013-11-13 04:55:00
11:15 PM,24.4,10.8,56,30.54,10.0,South,13.8,-,N/A,,Clear,180,2013-11-13 05:15:00
11:35 PM,25.7,11.1,54,30.52,10.0,South,16.1,-,N/A,,Clear,180,2013-11-13 05:35:00
11:55 PM,25.5,10.9,54,30.52,10.0,South,13.8,-,N/A,,Clear,190,2013-11-13 05:55:00